Location: Asheville, NC
(35.6000°N, 82.5500°W)
Time: 06:23:48
(UTC-05:00)

Vanguard 3 - Pass Details

Date: 18 February 2018
Orbit: 508 x 3264 km, 33.3° (Epoch: 24 February)

Event Time Altitude Azimuth Distance (km) Brightness Sun altitude
Rises 17:34:35 0° 257° (WSW) 2,836 12.4 7.1°
Reaches altitude 10° 17:37:01 10° 253° (WSW) 1,795 12.4 6.6°
Maximum altitude 17:40:45 58° 173° (S) 591 6.7 5.9°
Drops below altitude 10° 17:44:29 10° 94° (E) 1,789 8.4 5.2°
Sets 17:46:54 0° 90° (E) 2,827 9.3 4.7°
